sat.trackr.live / text

‹ back to catalog

STARLINK-30294

NORAD 57651 · 2023-122V

PAYLOAD ACTIVE UNKNOWN

§ Identity

Operator
Country
US
Launch date
2023-08-17
Launch site
AFETR
Launch vehicle
Mass (kg)
RCS (m²)

Purposes: comms

External: N2YO · Heavens-Above · Gunter

§ Orbital elements

Epoch: 2026-09-20T04:05:00.932352Z

Period
94.27 min
Inclination
43.0053°
Eccentricity
0.0002013
Mean motion
15.27590509 rev/d
Perigee alt
481.6 km
Apogee alt
484.4 km
Semi-major
6,861.2 km
B*
7.3037e-5
RAAN
62.8681°
Arg perigee
269.9159°
Mean anomaly
90.1462°
Rev number
17,208

§ Raw data

STARLINK-302941 57651U 23122V   26263.17014968  .00001749  00000+0  73037-4 0  99932 57651  43.0053  62.8681 0002013 269.9159  90.1462 15.27590509172082

JSON: /api/v1/satellites/57651 · /tle

For live sub-satellite position, see the globe view (requires WebGL).

§ Visibility from observer

Set your observer location to see the next 7 days of passes ≥ 10°. The values pass through the URL so the page stays shareable.

No JS? Fill the form by hand. The geolocation button needs JavaScript.